CES5832 ZPPP-ZPLJ

Flight info

Callsign CES5832
Flight time 0h 46m
Altitude 19700
Route GULOT W146 BUBSU W162 CEH
Aircraft A320/M-SDE3FGHIRWY/LB1

Departure

Time 2026-04-23 07:58
Airport Kunming Changshui International Airport (ZPPP)

Arrival

Time 2026-04-23 08:44
Airport Lijiang Sanyi International Airport (ZPLJ)
Time Latitude Longitude Altitude Speed Heading
2026-04-23 07:35 25.11256 102.93497 6900 ft 0 kts 40°
2026-04-23 07:44 25.11252 102.93494 6900 ft 3 kts 40°
2026-04-23 07:45 25.11238 102.93481 6900 ft 3 kts 40°
2026-04-23 07:45 25.11225 102.93468 6900 ft 3 kts 40°
2026-04-23 07:45 25.11211 102.93456 6900 ft 3 kts 41°
2026-04-23 07:45 25.11199 102.93442 6900 ft 3 kts 48°
2026-04-23 07:46 25.11187 102.93427 6901 ft 3 kts 71°
2026-04-23 07:46 25.11184 102.93408 6901 ft 3 kts 85°
2026-04-23 07:46 25.11186 102.93388 6901 ft 3 kts 122°
2026-04-23 07:46 25.11196 102.93375 6901 ft 3 kts 128°
2026-04-23 07:47 25.11199 102.93371 6901 ft 0 kts 127°
2026-04-23 07:49 25.11185 102.93392 6901 ft 5 kts 127°
2026-04-23 07:49 25.11154 102.93434 6900 ft 9 kts 129°
2026-04-23 07:49 25.11110 102.93493 6899 ft 12 kts 141°
2026-04-23 07:50 25.11033 102.93467 6899 ft 14 kts 219°
2026-04-23 07:50 25.10956 102.93390 6899 ft 16 kts 240°
2026-04-23 07:50 25.11000 102.93289 6901 ft 16 kts 308°
2026-04-23 07:50 25.11075 102.93185 6902 ft 18 kts 308°
2026-04-23 07:51 25.11156 102.93069 6903 ft 20 kts 307°
2026-04-23 07:51 25.11235 102.92955 6915 ft 10 kts 301°
2026-04-23 07:51 25.11198 102.92907 6906 ft 10 kts 217°
2026-04-23 07:51 25.11137 102.92855 6904 ft 12 kts 218°
2026-04-23 07:52 25.11061 102.92789 6910 ft 15 kts 218°
2026-04-23 07:52 25.10973 102.92712 6907 ft 18 kts 218°
2026-04-23 07:52 25.10871 102.92621 6908 ft 20 kts 219°
2026-04-23 07:52 25.10785 102.92544 6905 ft 16 kts 219°
2026-04-23 07:53 25.10692 102.92459 6906 ft 18 kts 220°
2026-04-23 07:53 25.10588 102.92363 6912 ft 21 kts 220°
2026-04-23 07:53 25.10464 102.92270 6907 ft 22 kts 217°
2026-04-23 07:53 25.10369 102.92182 6907 ft 13 kts 219°
2026-04-23 07:54 25.10290 102.92114 6908 ft 16 kts 214°
2026-04-23 07:54 25.10209 102.92047 6908 ft 15 kts 218°
2026-04-23 07:54 25.10120 102.91968 6908 ft 18 kts 218°
2026-04-23 07:54 25.10082 102.91914 6921 ft 9 kts 266°
2026-04-23 07:55 25.10125 102.91851 6915 ft 12 kts 311°
2026-04-23 07:55 25.10164 102.91802 6913 ft 3 kts 310°
2026-04-23 07:55 25.10168 102.91796 6911 ft 2 kts 310°
2026-04-23 07:55 25.10170 102.91793 6911 ft 0 kts 310°
2026-04-23 07:56 25.10172 102.91791 6923 ft 1 kts 310°
2026-04-23 07:56 25.10192 102.91765 6915 ft 7 kts 310°
2026-04-23 07:56 25.10232 102.91726 6916 ft 8 kts 339°
2026-04-23 07:57 25.10285 102.91749 6912 ft 9 kts 33°
2026-04-23 07:57 25.10304 102.91764 6909 ft 0 kts 38°
2026-04-23 07:57 25.10306 102.91766 6909 ft 0 kts 38°
2026-04-23 07:57 25.10422 102.91868 6915 ft 52 kts 37°
2026-04-23 07:58 25.10866 102.92254 6911 ft 108 kts 37°
2026-04-23 07:58 25.11578 102.92876 6904 ft 152 kts 37°
2026-04-23 07:58 25.12485 102.93656 7176 ft 166 kts 38°
2026-04-23 07:58 25.13402 102.94404 7878 ft 163 kts 32°
2026-04-23 07:59 25.14423 102.94961 8251 ft 170 kts
2026-04-23 07:59 25.15604 102.95419 8526 ft 191 kts 15°
2026-04-23 07:59 25.16942 102.96030 8811 ft 219 kts 18°
2026-04-23 07:59 25.18393 102.96722 9246 ft 235 kts 19°
2026-04-23 08:00 25.19409 102.97210 9505 ft 245 kts 19°
2026-04-23 08:00 25.21041 102.97993 9864 ft 266 kts 20°
2026-04-23 08:00 25.22788 102.98826 10358 ft 280 kts 20°
2026-04-23 08:00 25.24599 102.99688 11035 ft 286 kts 20°
2026-04-23 08:01 25.26442 103.00561 11745 ft 290 kts 20°
2026-04-23 08:01 25.28312 103.01442 12511 ft 294 kts 20°
2026-04-23 08:01 25.30206 103.02331 13291 ft 297 kts 20°
2026-04-23 08:01 25.32177 103.02952 14093 ft 291 kts 356°
2026-04-23 08:02 25.34086 103.02463 14790 ft 280 kts 324°
2026-04-23 08:02 25.35544 103.01078 15425 ft 277 kts 307°
2026-04-23 08:02 25.36708 102.99376 16042 ft 279 kts 301°
2026-04-23 08:02 25.37768 102.97566 16721 ft 281 kts 299°
2026-04-23 08:03 25.38809 102.95759 17365 ft 282 kts 300°
2026-04-23 08:03 25.39898 102.93942 17992 ft 285 kts 301°
2026-04-23 08:03 25.41032 102.92110 18492 ft 294 kts 301°
2026-04-23 08:03 25.42212 102.90185 18733 ft 311 kts 301°
2026-04-23 08:04 25.43459 102.88150 18968 ft 327 kts 302°
2026-04-23 08:04 25.44775 102.86018 19166 ft 344 kts 301°
2026-04-23 08:04 25.45873 102.83632 19468 ft 353 kts 285°
2026-04-23 08:04 25.46266 102.80948 19672 ft 354 kts 269°
2026-04-23 08:05 25.45884 102.78346 19709 ft 342 kts 254°
2026-04-23 08:05 25.44876 102.75901 19714 ft 364 kts 237°
2026-04-23 08:05 25.42978 102.73890 19707 ft 393 kts 219°
2026-04-23 08:05 25.40640 102.72165 19709 ft 415 kts 214°
2026-04-23 08:06 25.38068 102.70540 19713 ft 434 kts 212°
2026-04-23 08:06 25.35375 102.68968 19714 ft 438 kts 211°
2026-04-23 08:06 25.32703 102.67433 19714 ft 438 kts 211°
2026-04-23 08:06 25.30011 102.65850 19717 ft 437 kts 212°
2026-04-23 08:07 25.27350 102.64224 19712 ft 437 kts 212°
2026-04-23 08:07 25.24707 102.62558 19714 ft 436 kts 213°
2026-04-23 08:07 25.22080 102.60872 19712 ft 436 kts 213°
2026-04-23 08:07 25.19462 102.59184 19705 ft 436 kts 213°
2026-04-23 08:08 25.16839 102.57501 19701 ft 436 kts 213°
2026-04-23 08:08 25.14210 102.55824 19700 ft 436 kts 213°
2026-04-23 08:08 25.11791 102.53871 19696 ft 429 kts 229°
2026-04-23 08:08 25.10165 102.51161 19681 ft 423 kts 249°
2026-04-23 08:09 25.09577 102.48007 19666 ft 422 kts 270°
2026-04-23 08:09 25.10038 102.44817 19664 ft 424 kts 284°
2026-04-23 08:09 25.10856 102.41688 19658 ft 424 kts 285°
2026-04-23 08:09 25.11677 102.38597 19662 ft 425 kts 285°
2026-04-23 08:10 25.12510 102.35472 19660 ft 425 kts 285°
2026-04-23 08:10 25.13344 102.32345 19662 ft 425 kts 285°
2026-04-23 08:10 25.14997 102.26075 19666 ft 425 kts 285°
2026-04-23 08:11 25.15817 102.22945 19664 ft 424 kts 285°
2026-04-23 08:11 25.16638 102.19808 19652 ft 425 kts 285°
2026-04-23 08:11 25.17462 102.16665 19648 ft 425 kts 285°
2026-04-23 08:11 25.18284 102.13532 19646 ft 425 kts 285°
2026-04-23 08:12 25.19103 102.10397 19645 ft 425 kts 285°
2026-04-23 08:12 25.19909 102.07298 19638 ft 426 kts 285°
2026-04-23 08:12 25.20729 102.04160 19638 ft 425 kts 285°
2026-04-23 08:12 25.21547 102.01026 19633 ft 426 kts 285°
2026-04-23 08:13 25.22365 101.97881 19627 ft 426 kts 285°
2026-04-23 08:13 25.23183 101.94729 19628 ft 426 kts 285°
2026-04-23 08:13 25.24000 101.91577 19625 ft 427 kts 285°
2026-04-23 08:13 25.24814 101.88429 19624 ft 427 kts 285°
2026-04-23 08:14 25.25630 101.85277 19623 ft 427 kts 285°
2026-04-23 08:14 25.26450 101.82114 19616 ft 427 kts 285°
2026-04-23 08:14 25.27269 101.78956 19620 ft 427 kts 285°
2026-04-23 08:14 25.28085 101.75797 19610 ft 427 kts 285°
2026-04-23 08:15 25.28900 101.72639 19613 ft 427 kts 285°
2026-04-23 08:15 25.29716 101.69474 19608 ft 428 kts 285°
2026-04-23 08:15 25.30532 101.66308 19603 ft 428 kts 285°
2026-04-23 08:15 25.31335 101.63186 19605 ft 428 kts 285°
2026-04-23 08:16 25.32148 101.60018 19601 ft 428 kts 285°
2026-04-23 08:16 25.32964 101.56844 19600 ft 429 kts 285°
2026-04-23 08:16 25.33780 101.53672 19599 ft 429 kts 285°
2026-04-23 08:16 25.34595 101.50498 19600 ft 429 kts 285°
2026-04-23 08:17 25.35407 101.47324 19598 ft 429 kts 285°
2026-04-23 08:17 25.36218 101.44150 19596 ft 429 kts 285°
2026-04-23 08:17 25.37030 101.40972 19596 ft 430 kts 285°
2026-04-23 08:17 25.37846 101.37788 19588 ft 430 kts 285°
2026-04-23 08:18 25.38656 101.34612 19598 ft 429 kts 285°
2026-04-23 08:18 25.39466 101.31429 19591 ft 431 kts 285°
2026-04-23 08:18 25.40277 101.28248 19591 ft 430 kts 285°
2026-04-23 08:18 25.41085 101.25064 19593 ft 430 kts 285°
2026-04-23 08:19 25.41894 101.21879 19588 ft 430 kts 285°
2026-04-23 08:19 25.42702 101.18695 19592 ft 430 kts 285°
2026-04-23 08:19 25.43510 101.15511 19592 ft 430 kts 285°
2026-04-23 08:19 25.44322 101.12314 19584 ft 430 kts 285°
2026-04-23 08:20 25.45133 101.09128 19584 ft 430 kts 285°
2026-04-23 08:20 25.45933 101.05980 19577 ft 431 kts 285°
2026-04-23 08:20 25.46739 101.02789 19581 ft 430 kts 285°
2026-04-23 08:20 25.47545 100.99592 19578 ft 430 kts 285°
2026-04-23 08:21 25.48349 100.96404 19570 ft 430 kts 285°
2026-04-23 08:21 25.49151 100.93207 19564 ft 430 kts 285°
2026-04-23 08:21 25.49955 100.89998 19556 ft 431 kts 285°
2026-04-23 08:21 25.50756 100.86808 19557 ft 431 kts 285°
2026-04-23 08:22 25.51562 100.83610 19554 ft 431 kts 285°
2026-04-23 08:22 25.52358 100.80446 19552 ft 431 kts 285°
2026-04-23 08:22 25.53161 100.77243 19547 ft 432 kts 286°
2026-04-23 08:22 25.53962 100.74037 19544 ft 432 kts 285°
2026-04-23 08:23 25.54762 100.70831 19539 ft 432 kts 286°
2026-04-23 08:23 25.55564 100.67616 19540 ft 432 kts 286°
2026-04-23 08:23 25.56365 100.64406 19536 ft 433 kts 285°
2026-04-23 08:23 25.57167 100.61191 19536 ft 433 kts 285°
2026-04-23 08:24 25.57967 100.57982 19538 ft 432 kts 286°
2026-04-23 08:24 25.58757 100.54823 19331 ft 417 kts 286°
2026-04-23 08:24 25.59518 100.51777 19102 ft 404 kts 286°
2026-04-23 08:24 25.60258 100.48810 18865 ft 394 kts 286°
2026-04-23 08:25 25.60975 100.45916 18642 ft 385 kts 286°
2026-04-23 08:25 25.61674 100.43090 18509 ft 374 kts 286°
2026-04-23 08:25 25.62378 100.40356 18259 ft 366 kts 290°
2026-04-23 08:25 25.63592 100.37902 17781 ft 363 kts 309°
2026-04-23 08:26 25.65448 100.36080 17293 ft 363 kts 328°
2026-04-23 08:26 25.67774 100.35060 17024 ft 358 kts 347°
2026-04-23 08:26 25.70214 100.34948 17018 ft 347 kts
2026-04-23 08:26 25.72508 100.35625 17023 ft 337 kts 17°
2026-04-23 08:27 25.74667 100.36484 17020 ft 325 kts 17°
2026-04-23 08:27 25.76809 100.37344 17018 ft 328 kts 17°
2026-04-23 08:27 25.78952 100.38206 17009 ft 328 kts 17°
2026-04-23 08:27 25.81100 100.39073 17011 ft 328 kts 17°
2026-04-23 08:28 25.83244 100.39938 17003 ft 328 kts 17°
2026-04-23 08:28 25.85393 100.40806 16793 ft 327 kts 17°
2026-04-23 08:28 25.87533 100.41672 16544 ft 327 kts 17°
2026-04-23 08:28 25.89667 100.42535 16292 ft 326 kts 17°
2026-04-23 08:29 25.91793 100.43395 16042 ft 325 kts 17°
2026-04-23 08:29 25.93919 100.44248 15798 ft 323 kts 15°
2026-04-23 08:29 25.96098 100.44789 15554 ft 319 kts
2026-04-23 08:29 25.98304 100.44839 15309 ft 316 kts 352°
2026-04-23 08:30 26.00447 100.44410 15337 ft 313 kts 342°
2026-04-23 08:30 26.02478 100.43561 15327 ft 311 kts 331°
2026-04-23 08:30 26.04368 100.42392 15322 ft 311 kts 328°
2026-04-23 08:30 26.06252 100.41198 15322 ft 311 kts 328°
2026-04-23 08:31 26.08132 100.40009 15314 ft 311 kts 328°
2026-04-23 08:31 26.10013 100.38819 15313 ft 311 kts 328°
2026-04-23 08:31 26.11896 100.37626 15310 ft 311 kts 328°
2026-04-23 08:31 26.13755 100.36448 15310 ft 311 kts 328°
2026-04-23 08:32 26.15604 100.35275 15308 ft 301 kts 328°
2026-04-23 08:32 26.17383 100.34144 15308 ft 288 kts 328°
2026-04-23 08:32 26.19010 100.32955 15309 ft 273 kts 316°
2026-04-23 08:32 26.20197 100.31383 15257 ft 262 kts 299°
2026-04-23 08:33 26.20898 100.29520 15015 ft 261 kts 285°
2026-04-23 08:33 26.21418 100.27576 14773 ft 262 kts 286°
2026-04-23 08:33 26.21947 100.25638 14532 ft 260 kts 287°
2026-04-23 08:33 26.22473 100.23727 14276 ft 257 kts 287°
2026-04-23 08:34 26.22988 100.21861 14052 ft 247 kts 287°
2026-04-23 08:34 26.23480 100.20067 13823 ft 237 kts 286°
2026-04-23 08:34 26.23952 100.18347 13662 ft 225 kts 287°
2026-04-23 08:34 26.24406 100.16695 13667 ft 221 kts 286°
2026-04-23 08:35 26.24841 100.15119 13670 ft 211 kts 286°
2026-04-23 08:35 26.25277 100.13545 13702 ft 211 kts 290°
2026-04-23 08:35 26.26043 100.12164 13712 ft 213 kts 316°
2026-04-23 08:35 26.27319 100.11346 13653 ft 219 kts 340°
2026-04-23 08:36 26.28858 100.11288 13423 ft 230 kts 10°
2026-04-23 08:36 26.30361 100.11807 13358 ft 218 kts 14°
2026-04-23 08:36 26.31766 100.12290 13319 ft 207 kts 13°
2026-04-23 08:36 26.33136 100.12749 13174 ft 201 kts 13°
2026-04-23 08:37 26.34422 100.13180 13175 ft 187 kts 12°
2026-04-23 08:37 26.35657 100.13595 13013 ft 179 kts 13°
2026-04-23 08:37 26.36832 100.13992 12829 ft 175 kts 11°
2026-04-23 08:37 26.38007 100.14386 12597 ft 176 kts 12°
2026-04-23 08:38 26.39174 100.14779 12371 ft 175 kts 12°
2026-04-23 08:38 26.40324 100.15169 12134 ft 173 kts 13°
2026-04-23 08:38 26.41491 100.15562 11888 ft 175 kts 12°
2026-04-23 08:38 26.42662 100.15958 11799 ft 176 kts 11°
2026-04-23 08:39 26.43819 100.16349 11526 ft 171 kts 12°
2026-04-23 08:39 26.44955 100.16733 11269 ft 169 kts 12°
2026-04-23 08:39 26.46095 100.17119 11054 ft 173 kts 12°
2026-04-23 08:39 26.47242 100.17509 10829 ft 172 kts 12°
2026-04-23 08:40 26.48378 100.17894 10623 ft 172 kts 13°
2026-04-23 08:40 26.49523 100.18284 10411 ft 172 kts 13°
2026-04-23 08:40 26.50669 100.18673 10204 ft 171 kts 13°
2026-04-23 08:40 26.51813 100.19062 9991 ft 172 kts 13°
2026-04-23 08:41 26.52957 100.19451 9794 ft 171 kts 13°
2026-04-23 08:41 26.54084 100.19835 9583 ft 168 kts 13°
2026-04-23 08:41 26.55206 100.20216 9344 ft 168 kts 13°
2026-04-23 08:41 26.56325 100.20597 9168 ft 168 kts 14°
2026-04-23 08:42 26.57441 100.20977 9009 ft 167 kts 14°
2026-04-23 08:42 26.58551 100.21353 8857 ft 167 kts 13°
2026-04-23 08:42 26.59670 100.21706 8646 ft 165 kts 13°
2026-04-23 08:42 26.60758 100.22064 8508 ft 165 kts 14°
2026-04-23 08:43 26.61856 100.22450 8392 ft 165 kts 16°
2026-04-23 08:43 26.62955 100.22831 8060 ft 163 kts 14°
2026-04-23 08:43 26.64051 100.23211 7751 ft 164 kts 15°
2026-04-23 08:43 26.65130 100.23598 7434 ft 165 kts 15°
2026-04-23 08:44 26.66219 100.23973 7265 ft 162 kts 15°
2026-04-23 08:44 26.67242 100.24312 7187 ft 127 kts 13°
2026-04-23 08:44 26.67851 100.24519 7188 ft 63 kts 17°
2026-04-23 08:44 26.68125 100.24621 7190 ft 27 kts 18°
2026-04-23 08:45 26.68299 100.24676 7191 ft 26 kts 13°
2026-04-23 08:45 26.68468 100.24726 7192 ft 25 kts 25°
2026-04-23 08:45 26.68530 100.24852 7191 ft 10 kts 107°
2026-04-23 08:45 26.68495 100.24919 7192 ft 11 kts 158°
2026-04-23 08:46 26.68422 100.24897 7187 ft 11 kts 200°
2026-04-23 08:46 26.68342 100.24876 7185 ft 12 kts 194°
2026-04-23 08:46 26.68255 100.24851 7191 ft 13 kts 194°
2026-04-23 08:46 26.68159 100.24815 7187 ft 17 kts 199°
2026-04-23 08:47 26.68036 100.24772 7188 ft 19 kts 198°
2026-04-23 08:47 26.67903 100.24726 7187 ft 20 kts 195°
2026-04-23 08:47 26.67763 100.24679 7190 ft 21 kts 197°
2026-04-23 08:47 26.67620 100.24630 7187 ft 22 kts 200°
2026-04-23 08:48 26.67472 100.24580 7189 ft 23 kts 197°
2026-04-23 08:48 26.67327 100.24529 7187 ft 18 kts 197°
2026-04-23 08:48 26.67213 100.24492 7188 ft 15 kts 196°
2026-04-23 08:48 26.67114 100.24461 7187 ft 12 kts 183°
2026-04-23 08:49 26.67062 100.24516 7186 ft 9 kts 128°
2026-04-23 08:49 26.67010 100.24546 7189 ft 6 kts 174°
2026-04-23 08:49 26.66973 100.24535 7189 ft 2 kts 198°
2026-04-23 08:49 26.66971 100.24534 7189 ft 0 kts 198°